owner,sensor,date,latitude,longitude,vertical_datum,sea_water_practical_salinity,qcFlag 
NERRS,ioos:station:NOAA.NERRS:gtmpcwq:1,2014-03-01T00:45:00Z,29.6671,-81.2574,1.62,0.9,1111122 
NERRS,ioos:station:NOAA.NERRS:gtmpcwq:1,2014-03-01T01:45:00Z,29.6671,-81.2574,1.74,1.7,1111122 
NERRS,ioos:station:NOAA.NERRS:gtmpcwq:1,2014-03-01T02:45:00Z,29.6671,-81.2574,1.83,5.7,1111122 
NERRS,ioos:station:NOAA.NERRS:gtmpcwq:1,2014-03-01T03:45:00Z,29.6671,-81.2574,1.9,10.2,1111122 
NERRS,ioos:station:NOAA.NERRS:gtmpcwq:1,2014-03-01T04:45:00Z,29.6671,-81.2574,1.91,12.4,1111122 
NERRS,ioos:station:NOAA.NERRS:gtmpcwq:1,2014-03-01T05:45:00Z,29.6671,-81.2574,1.85,10.5,1111122 
NERRS,ioos:station:NOAA.NERRS:gtmpcwq:1,2014-03-01T06:45:00Z,29.6671,-81.2574,1.77,4.6,1111122 
NERRS,ioos:station:NOAA.NERRS:gtmpcwq:1,2014-03-01T07:45:00Z,29.6671,-81.2574,1.68,1.9,1111122 
NERRS,ioos:station:NOAA.NERRS:gtmpcwq:1,2014-03-01T08:45:00Z,29.6671,-81.2574,1.58,0.4,1111122 
NERRS,ioos:station:NOAA.NERRS:gtmpcwq:1,2014-03-01T09:45:00Z,29.6671,-81.2574,1.49,0.2,1111122 
NERRS,ioos:station:NOAA.NERRS:gtmpcwq:1,2014-03-01T10:45:00Z,29.6671,-81.2574,1.43,0.2,1111122 
NERRS,ioos:station:NOAA.NERRS:gtmpcwq:1,2014-03-01T11:45:00Z,29.6671,-81.2574,1.48,0.2,1111122 
NERRS,ioos:station:NOAA.NERRS:gtmpcwq:1,2014-03-01T12:45:00Z,29.6671,-81.2574,1.63,0.5,1111122 
NERRS,ioos:station:NOAA.NERRS:gtmpcwq:1,2014-03-01T13:45:00Z,29.6671,-81.2574,1.77,1.2,1111122 
NERRS,ioos:station:NOAA.NERRS:gtmpcwq:1,2014-03-01T14:45:00Z,29.6671,-81.2574,1.88,13.2,1111122 
NERRS,ioos:station:NOAA.NERRS:gtmpcwq:1,2014-03-01T15:45:00Z,29.6671,-81.2574,1.97,20.8,1111122 
NERRS,ioos:station:NOAA.NERRS:gtmpcwq:1,2014-03-01T16:45:00Z,29.6671,-81.2574,2.03,21.6,1111122 
NERRS,ioos:station:NOAA.NERRS:gtmpcwq:1,2014-03-01T17:45:00Z,29.6671,-81.2574,2.0,22.5,1111122 
NERRS,ioos:station:NOAA.NERRS:gtmpcwq:1,2014-03-01T18:45:00Z,29.6671,-81.2574,1.92,20.7,1111122 
NERRS,ioos:station:NOAA.NERRS:gtmpcwq:1,2014-03-01T19:45:00Z,29.6671,-81.2574,1.83,17.4,1111122 
NERRS,ioos:station:NOAA.NERRS:gtmpcwq:1,2014-03-01T20:45:00Z,29.6671,-81.2574,1.76,6.6,1111122 
NERRS,ioos:station:NOAA.NERRS:gtmpcwq:1,2014-03-01T21:45:00Z,29.6671,-81.2574,1.67,3.1,1111122 
NERRS,ioos:station:NOAA.NERRS:gtmpcwq:1,2014-03-01T22:45:00Z,29.6671,-81.2574,1.57,1.3,1111122 
NERRS,ioos:station:NOAA.NERRS:gtmpcwq:1,2014-03-01T23:45:00Z,29.6671,-81.2574,1.53,0.6,1111122 
NERRS,ioos:station:NOAA.NERRS:gtmpcwq:1,2014-03-02T00:45:00Z,29.6671,-81.2574,1.63,1.3,1111122 
NERRS,ioos:station:NOAA.NERRS:gtmpcwq:1,2014-03-02T01:45:00Z,29.6671,-81.2574,1.76,2.6,1111122 
NERRS,ioos:station:NOAA.NERRS:gtmpcwq:1,2014-03-02T02:45:00Z,29.6671,-81.2574,1.85,6.1,1111122 
NERRS,ioos:station:NOAA.NERRS:gtmpcwq:1,2014-03-02T03:45:00Z,29.6671,-81.2574,1.94,10.4,1111122 
NERRS,ioos:station:NOAA.NERRS:gtmpcwq:1,2014-03-02T04:45:00Z,29.6671,-81.2574,2.0,14.6,1111122 
NERRS,ioos:station:NOAA.NERRS:gtmpcwq:1,2014-03-02T05:45:00Z,29.6671,-81.2574,1.99,16.3,1111122 
NERRS,ioos:station:NOAA.NERRS:gtmpcwq:1,2014-03-02T06:45:00Z,29.6671,-81.2574,1.92,14.2,1111122 
NERRS,ioos:station:NOAA.NERRS:gtmpcwq:1,2014-03-02T07:45:00Z,29.6671,-81.2574,1.84,8.1,1111122 
NERRS,ioos:station:NOAA.NERRS:gtmpcwq:1,2014-03-02T08:45:00Z,29.6671,-81.2574,1.76,4.4,1111122 
NERRS,ioos:station:NOAA.NERRS:gtmpcwq:1,2014-03-02T09:45:00Z,29.6671,-81.2574,1.67,1.6,1111122 
NERRS,ioos:station:NOAA.NERRS:gtmpcwq:1,2014-03-02T10:45:00Z,29.6671,-81.2574,1.57,0.6,1111122 
NERRS,ioos:station:NOAA.NERRS:gtmpcwq:1,2014-03-02T11:45:00Z,29.6671,-81.2574,1.5,0.3,1111122 
NERRS,ioos:station:NOAA.NERRS:gtmpcwq:1,2014-03-02T12:45:00Z,29.6671,-81.2574,1.51,0.3,1111122 
NERRS,ioos:station:NOAA.NERRS:gtmpcwq:1,2014-03-02T13:45:00Z,29.6671,-81.2574,1.65,0.9,1111122 
NERRS,ioos:station:NOAA.NERRS:gtmpcwq:1,2014-03-02T14:45:00Z,29.6671,-81.2574,1.78,1.7,1111122 
NERRS,ioos:station:NOAA.NERRS:gtmpcwq:1,2014-03-02T15:45:00Z,29.6671,-81.2574,1.87,10.4,1111122 
NERRS,ioos:station:NOAA.NERRS:gtmpcwq:1,2014-03-02T16:45:00Z,29.6671,-81.2574,1.93,17.9,1111122 
NERRS,ioos:station:NOAA.NERRS:gtmpcwq:1,2014-03-02T17:45:00Z,29.6671,-81.2574,1.95,19.9,1111122 
NERRS,ioos:station:NOAA.NERRS:gtmpcwq:1,2014-03-02T18:45:00Z,29.6671,-81.2574,1.88,18.7,1111122 
NERRS,ioos:station:NOAA.NERRS:gtmpcwq:1,2014-03-02T19:45:00Z,29.6671,-81.2574,1.79,14.4,1111122 
NERRS,ioos:station:NOAA.NERRS:gtmpcwq:1,2014-03-02T20:45:00Z,29.6671,-81.2574,1.71,5.0,1111122 
NERRS,ioos:station:NOAA.NERRS:gtmpcwq:1,2014-03-02T21:45:00Z,29.6671,-81.2574,1.61,1.7,1111122 
NERRS,ioos:station:NOAA.NERRS:gtmpcwq:1,2014-03-02T22:45:00Z,29.6671,-81.2574,1.51,0.7,1111122 
NERRS,ioos:station:NOAA.NERRS:gtmpcwq:1,2014-03-02T23:45:00Z,29.6671,-81.2574,1.43,0.4,1111122 
NERRS,ioos:station:NOAA.NERRS:gtmpcwq:1,2014-03-03T00:45:00Z,29.6671,-81.2574,1.39,0.3,1111122 
NERRS,ioos:station:NOAA.NERRS:gtmpcwq:1,2014-03-03T01:45:00Z,29.6671,-81.2574,1.49,0.5,1111122 
NERRS,ioos:station:NOAA.NERRS:gtmpcwq:1,2014-03-03T02:45:00Z,29.6671,-81.2574,1.64,1.1,1111122 
NERRS,ioos:station:NOAA.NERRS:gtmpcwq:1,2014-03-03T03:45:00Z,29.6671,-81.2574,1.75,4.1,1111122 
NERRS,ioos:station:NOAA.NERRS:gtmpcwq:1,2014-03-03T04:45:00Z,29.6671,-81.2574,1.83,9.9,1111122 
NERRS,ioos:station:NOAA.NERRS:gtmpcwq:1,2014-03-03T05:45:00Z,29.6671,-81.2574,1.87,17.3,1111122 
NERRS,ioos:station:NOAA.NERRS:gtmpcwq:1,2014-03-03T06:45:00Z,29.6671,-81.2574,1.83,20.0,1111122 
NERRS,ioos:station:NOAA.NERRS:gtmpcwq:1,2014-03-03T07:45:00Z,29.6671,-81.2574,1.75,15.0,1111122 
NERRS,ioos:station:NOAA.NERRS:gtmpcwq:1,2014-03-03T08:45:00Z,29.6671,-81.2574,1.67,5.3,1111122 
NERRS,ioos:station:NOAA.NERRS:gtmpcwq:1,2014-03-03T09:45:00Z,29.6671,-81.2574,1.58,1.7,1111122 
NERRS,ioos:station:NOAA.NERRS:gtmpcwq:1,2014-03-03T10:45:00Z,29.6671,-81.2574,1.49,0.7,1111122 
NERRS,ioos:station:NOAA.NERRS:gtmpcwq:1,2014-03-03T11:45:00Z,29.6671,-81.2574,1.4,0.3,1111122 
NERRS,ioos:station:NOAA.NERRS:gtmpcwq:1,2014-03-03T12:45:00Z,29.6671,-81.2574,1.34,0.2,1111122 
NERRS,ioos:station:NOAA.NERRS:gtmpcwq:1,2014-03-03T13:45:00Z,29.6671,-81.2574,1.35,0.2,1111122 
NERRS,ioos:station:NOAA.NERRS:gtmpcwq:1,2014-03-03T14:45:00Z,29.6671,-81.2574,1.46,0.7,1111122 
NERRS,ioos:station:NOAA.NERRS:gtmpcwq:1,2014-03-03T15:45:00Z,29.6671,-81.2574,1.6,1.0,1111122 
NERRS,ioos:station:NOAA.NERRS:gtmpcwq:1,2014-03-03T16:45:00Z,29.6671,-81.2574,1.69,7.6,1111122 
NERRS,ioos:station:NOAA.NERRS:gtmpcwq:1,2014-03-03T17:45:00Z,29.6671,-81.2574,1.72,17.8,1111122 
NERRS,ioos:station:NOAA.NERRS:gtmpcwq:1,2014-03-03T18:45:00Z,29.6671,-81.2574,1.69,23.6,1111122 
NERRS,ioos:station:NOAA.NERRS:gtmpcwq:1,2014-03-03T19:45:00Z,29.6671,-81.2574,1.61,22.6,1111122 
NERRS,ioos:station:NOAA.NERRS:gtmpcwq:1,2014-03-03T20:45:00Z,29.6671,-81.2574,1.51,18.1,1111122 
NERRS,ioos:station:NOAA.NERRS:gtmpcwq:1,2014-03-03T21:45:00Z,29.6671,-81.2574,1.42,12.4,1111122 
NERRS,ioos:station:NOAA.NERRS:gtmpcwq:1,2014-03-03T22:45:00Z,29.6671,-81.2574,1.35,6.3,1111122 
NERRS,ioos:station:NOAA.NERRS:gtmpcwq:1,2014-03-03T23:45:00Z,29.6671,-81.2574,1.29,4.7,1111122 
NERRS,ioos:station:NOAA.NERRS:gtmpcwq:1,2014-03-04T00:45:00Z,29.6671,-81.2574,1.24,0.5,1111122 
NERRS,ioos:station:NOAA.NERRS:gtmpcwq:1,2014-03-04T01:45:00Z,29.6671,-81.2574,1.21,1.5,1111122 
NERRS,ioos:station:NOAA.NERRS:gtmpcwq:1,2014-03-04T02:45:00Z,29.6671,-81.2574,1.3,0.9,1111122 
NERRS,ioos:station:NOAA.NERRS:gtmpcwq:1,2014-03-04T03:45:00Z,29.6671,-81.2574,1.44,1.6,1111122 
NERRS,ioos:station:NOAA.NERRS:gtmpcwq:1,2014-03-04T04:45:00Z,29.6671,-81.2574,1.58,5.9,1111122 
NERRS,ioos:station:NOAA.NERRS:gtmpcwq:1,2014-03-04T05:45:00Z,29.6671,-81.2574,1.69,9.2,1111122 
NERRS,ioos:station:NOAA.NERRS:gtmpcwq:1,2014-03-04T06:45:00Z,29.6671,-81.2574,1.73,10.6,1111122 
NERRS,ioos:station:NOAA.NERRS:gtmpcwq:1,2014-03-04T07:45:00Z,29.6671,-81.2574,1.67,10.2,1111122 
NERRS,ioos:station:NOAA.NERRS:gtmpcwq:1,2014-03-04T08:45:00Z,29.6671,-81.2574,1.59,7.2,1111122 
NERRS,ioos:station:NOAA.NERRS:gtmpcwq:1,2014-03-04T09:45:00Z,29.6671,-81.2574,1.5,3.7,1111122 
NERRS,ioos:station:NOAA.NERRS:gtmpcwq:1,2014-03-04T10:45:00Z,29.6671,-81.2574,1.43,1.7,1111122 
NERRS,ioos:station:NOAA.NERRS:gtmpcwq:1,2014-03-04T11:45:00Z,29.6671,-81.2574,1.36,0.7,1111122 
NERRS,ioos:station:NOAA.NERRS:gtmpcwq:1,2014-03-04T12:45:00Z,29.6671,-81.2574,1.31,0.4,1111122 
NERRS,ioos:station:NOAA.NERRS:gtmpcwq:1,2014-03-04T13:45:00Z,29.6671,-81.2574,1.28,0.3,1111122 
NERRS,ioos:station:NOAA.NERRS:gtmpcwq:1,2014-03-04T14:45:00Z,29.6671,-81.2574,1.36,0.9,1111122 
NERRS,ioos:station:NOAA.NERRS:gtmpcwq:1,2014-03-04T15:45:00Z,29.6671,-81.2574,1.5,2.0,1111122 
NERRS,ioos:station:NOAA.NERRS:gtmpcwq:1,2014-03-04T16:45:00Z,29.6671,-81.2574,1.65,3.4,1111122 
NERRS,ioos:station:NOAA.NERRS:gtmpcwq:1,2014-03-04T17:45:00Z,29.6671,-81.2574,1.75,7.2,1111122 
NERRS,ioos:station:NOAA.NERRS:gtmpcwq:1,2014-03-04T18:45:00Z,29.6671,-81.2574,1.8,11.2,1111122 
NERRS,ioos:station:NOAA.NERRS:gtmpcwq:1,2014-03-04T19:45:00Z,29.6671,-81.2574,1.81,12.4,1111122 
NERRS,ioos:station:NOAA.NERRS:gtmpcwq:1,2014-03-04T20:45:00Z,29.6671,-81.2574,1.75,11.2,1111122 
NERRS,ioos:station:NOAA.NERRS:gtmpcwq:1,2014-03-04T21:45:00Z,29.6671,-81.2574,1.68,5.8,1111122 
NERRS,ioos:station:NOAA.NERRS:gtmpcwq:1,2014-03-04T22:45:00Z,29.6671,-81.2574,1.59,3.0,1111122 
NERRS,ioos:station:NOAA.NERRS:gtmpcwq:1,2014-03-04T23:45:00Z,29.6671,-81.2574,1.5,1.2,1111122 
NERRS,ioos:station:NOAA.NERRS:gtmpcwq:1,2014-03-05T00:45:00Z,29.6671,-81.2574,1.42,0.6,1111122 
NERRS,ioos:station:NOAA.NERRS:gtmpcwq:1,2014-03-06T14:45:00Z,29.6671,-81.2574,1.49,1.4,1111122 
NERRS,ioos:station:NOAA.NERRS:gtmpcwq:1,2014-03-06T15:45:00Z,29.6671,-81.2574,1.53,1.6,1111122 
NERRS,ioos:station:NOAA.NERRS:gtmpcwq:1,2014-03-06T16:45:00Z,29.6671,-81.2574,1.64,3.5,1111122 
NERRS,ioos:station:NOAA.NERRS:gtmpcwq:1,2014-03-06T17:45:00Z,29.6671,-81.2574,1.71,7.9,1111122 
NERRS,ioos:station:NOAA.NERRS:gtmpcwq:1,2014-03-06T18:45:00Z,29.6671,-81.2574,1.77,14.4,1111122 
NERRS,ioos:station:NOAA.NERRS:gtmpcwq:1,2014-03-06T19:45:00Z,29.6671,-81.2574,1.81,18.7,1111122 
NERRS,ioos:station:NOAA.NERRS:gtmpcwq:1,2014-03-06T20:45:00Z,29.6671,-81.2574,1.81,21.6,1111122 
NERRS,ioos:station:NOAA.NERRS:gtmpcwq:1,2014-03-06T21:45:00Z,29.6671,-81.2574,1.79,24.0,1111122 
NERRS,ioos:station:NOAA.NERRS:gtmpcwq:1,2014-03-06T22:45:00Z,29.6671,-81.2574,1.73,19.0,1111122 
NERRS,ioos:station:NOAA.NERRS:gtmpcwq:1,2014-03-06T23:45:00Z,29.6671,-81.2574,1.67,14.8,1111122 
NERRS,ioos:station:NOAA.NERRS:gtmpcwq:1,2014-03-07T00:45:00Z,29.6671,-81.2574,1.59,6.4,1111122 
NERRS,ioos:station:NOAA.NERRS:gtmpcwq:1,2014-03-07T01:45:00Z,29.6671,-81.2574,1.52,2.7,1111122 
NERRS,ioos:station:NOAA.NERRS:gtmpcwq:1,2014-03-07T02:45:00Z,29.6671,-81.2574,1.48,1.5,1111122 
NERRS,ioos:station:NOAA.NERRS:gtmpcwq:1,2014-03-07T03:45:00Z,29.6671,-81.2574,1.54,3.0,1111122 
NERRS,ioos:station:NOAA.NERRS:gtmpcwq:1,2014-03-07T04:45:00Z,29.6671,-81.2574,1.64,5.8,1111122 
NERRS,ioos:station:NOAA.NERRS:gtmpcwq:1,2014-03-07T05:45:00Z,29.6671,-81.2574,1.71,13.8,1111122 
NERRS,ioos:station:NOAA.NERRS:gtmpcwq:1,2014-03-07T06:45:00Z,29.6671,-81.2574,1.8,17.7,1111122 
NERRS,ioos:station:NOAA.NERRS:gtmpcwq:1,2014-03-07T07:45:00Z,29.6671,-81.2574,1.87,19.1,1111122 
NERRS,ioos:station:NOAA.NERRS:gtmpcwq:1,2014-03-07T08:45:00Z,29.6671,-81.2574,1.93,21.1,1111122 
NERRS,ioos:station:NOAA.NERRS:gtmpcwq:1,2014-03-07T09:45:00Z,29.6671,-81.2574,1.94,22.9,1111122 
NERRS,ioos:station:NOAA.NERRS:gtmpcwq:1,2014-03-07T10:45:00Z,29.6671,-81.2574,1.89,22.6,1111122 
NERRS,ioos:station:NOAA.NERRS:gtmpcwq:1,2014-03-07T11:45:00Z,29.6671,-81.2574,1.83,19.3,1111122 
NERRS,ioos:station:NOAA.NERRS:gtmpcwq:1,2014-03-07T12:45:00Z,29.6671,-81.2574,1.77,16.0,1111122 
NERRS,ioos:station:NOAA.NERRS:gtmpcwq:1,2014-03-07T13:45:00Z,29.6671,-81.2574,1.71,9.9,1111122 
NERRS,ioos:station:NOAA.NERRS:gtmpcwq:1,2014-03-07T14:45:00Z,29.6671,-81.2574,1.65,6.5,1111122 
NERRS,ioos:station:NOAA.NERRS:gtmpcwq:1,2014-03-07T15:45:00Z,29.6671,-81.2574,1.58,4.1,1111122 
NERRS,ioos:station:NOAA.NERRS:gtmpcwq:1,2014-03-07T16:45:00Z,29.6671,-81.2574,1.57,3.3,1111122 
NERRS,ioos:station:NOAA.NERRS:gtmpcwq:1,2014-03-07T17:45:00Z,29.6671,-81.2574,1.63,6.1,1111122 
NERRS,ioos:station:NOAA.NERRS:gtmpcwq:1,2014-03-07T18:45:00Z,29.6671,-81.2574,1.7,7.7,1111122 
NERRS,ioos:station:NOAA.NERRS:gtmpcwq:1,2014-03-07T19:45:00Z,29.6671,-81.2574,1.76,16.5,1111122 
NERRS,ioos:station:NOAA.NERRS:gtmpcwq:1,2014-03-07T20:45:00Z,29.6671,-81.2574,1.8,22.3,1111122 
NERRS,ioos:station:NOAA.NERRS:gtmpcwq:1,2014-03-07T22:45:00Z,29.6671,-81.2574,1.76,24.1,1111122 
NERRS,ioos:station:NOAA.NERRS:gtmpcwq:1,2014-03-07T23:45:00Z,29.6671,-81.2574,1.7,21.2,1111122 
NERRS,ioos:station:NOAA.NERRS:gtmpcwq:1,2014-03-08T00:45:00Z,29.6671,-81.2574,1.62,16.5,1111122 
NERRS,ioos:station:NOAA.NERRS:gtmpcwq:1,2014-03-08T01:45:00Z,29.6671,-81.2574,1.55,4.6,1111122 
NERRS,ioos:station:NOAA.NERRS:gtmpcwq:1,2014-03-08T02:45:00Z,29.6671,-81.2574,1.47,4.4,1111122 
NERRS,ioos:station:NOAA.NERRS:gtmpcwq:1,2014-03-08T03:45:00Z,29.6671,-81.2574,1.42,3.0,1111122 
NERRS,ioos:station:NOAA.NERRS:gtmpcwq:1,2014-03-08T04:45:00Z,29.6671,-81.2574,1.45,2.3,1111122 
NERRS,ioos:station:NOAA.NERRS:gtmpcwq:1,2014-03-08T05:45:00Z,29.6671,-81.2574,1.56,4.8,1111122 
NERRS,ioos:station:NOAA.NERRS:gtmpcwq:1,2014-03-08T06:45:00Z,29.6671,-81.2574,1.69,8.1,1111122 
NERRS,ioos:station:NOAA.NERRS:gtmpcwq:1,2014-03-08T07:45:00Z,29.6671,-81.2574,1.76,20.7,1111122 
NERRS,ioos:station:NOAA.NERRS:gtmpcwq:1,2014-03-08T08:45:00Z,29.6671,-81.2574,1.84,23.6,1111122 
NERRS,ioos:station:NOAA.NERRS:gtmpcwq:1,2014-03-08T09:45:00Z,29.6671,-81.2574,1.89,23.5,1111122 
NERRS,ioos:station:NOAA.NERRS:gtmpcwq:1,2014-03-08T10:45:00Z,29.6671,-81.2574,1.89,24.3,1111122 
NERRS,ioos:station:NOAA.NERRS:gtmpcwq:1,2014-03-08T11:45:00Z,29.6671,-81.2574,1.84,23.4,1111122 
NERRS,ioos:station:NOAA.NERRS:gtmpcwq:1,2014-03-08T12:45:00Z,29.6671,-81.2574,1.78,21.2,1111122 
NERRS,ioos:station:NOAA.NERRS:gtmpcwq:1,2014-03-08T13:45:00Z,29.6671,-81.2574,1.72,14.0,1111122 
NERRS,ioos:station:NOAA.NERRS:gtmpcwq:1,2014-03-08T14:45:00Z,29.6671,-81.2574,1.64,8.4,1111122 
NERRS,ioos:station:NOAA.NERRS:gtmpcwq:1,2014-03-08T15:45:00Z,29.6671,-81.2574,1.57,6.7,1111122 
NERRS,ioos:station:NOAA.NERRS:gtmpcwq:1,2014-03-08T16:45:00Z,29.6671,-81.2574,1.52,6.3,1111122 
NERRS,ioos:station:NOAA.NERRS:gtmpcwq:1,2014-03-08T17:45:00Z,29.6671,-81.2574,1.54,4.2,1111122 
NERRS,ioos:station:NOAA.NERRS:gtmpcwq:1,2014-03-08T18:45:00Z,29.6671,-81.2574,1.63,5.8,1111122 
NERRS,ioos:station:NOAA.NERRS:gtmpcwq:1,2014-03-08T19:45:00Z,29.6671,-81.2574,1.71,10.7,1111122 
NERRS,ioos:station:NOAA.NERRS:gtmpcwq:1,2014-03-08T20:45:00Z,29.6671,-81.2574,1.77,13.1,1111122 
NERRS,ioos:station:NOAA.NERRS:gtmpcwq:1,2014-03-08T21:45:00Z,29.6671,-81.2574,1.79,13.9,1111122 
NERRS,ioos:station:NOAA.NERRS:gtmpcwq:1,2014-03-08T22:45:00Z,29.6671,-81.2574,1.76,13.5,1111122 
NERRS,ioos:station:NOAA.NERRS:gtmpcwq:1,2014-03-08T23:45:00Z,29.6671,-81.2574,1.68,10.7,1111122 
NERRS,ioos:station:NOAA.NERRS:gtmpcwq:1,2014-03-09T00:45:00Z,29.6671,-81.2574,1.61,6.4,1111122 
NERRS,ioos:station:NOAA.NERRS:gtmpcwq:1,2014-03-09T01:45:00Z,29.6671,-81.2574,1.53,4.0,1111122 
NERRS,ioos:station:NOAA.NERRS:gtmpcwq:1,2014-03-09T02:45:00Z,29.6671,-81.2574,1.46,3.5,1111122 
NERRS,ioos:station:NOAA.NERRS:gtmpcwq:1,2014-03-09T03:45:00Z,29.6671,-81.2574,1.4,3.3,1111122 
NERRS,ioos:station:NOAA.NERRS:gtmpcwq:1,2014-03-09T04:45:00Z,29.6671,-81.2574,1.35,2.4,1111122 
NERRS,ioos:station:NOAA.NERRS:gtmpcwq:1,2014-03-09T05:45:00Z,29.6671,-81.2574,1.36,2.0,1111122 
NERRS,ioos:station:NOAA.NERRS:gtmpcwq:1,2014-03-09T06:45:00Z,29.6671,-81.2574,1.45,3.2,1111122 
NERRS,ioos:station:NOAA.NERRS:gtmpcwq:1,2014-03-09T07:45:00Z,29.6671,-81.2574,1.57,4.3,1111122 
NERRS,ioos:station:NOAA.NERRS:gtmpcwq:1,2014-03-09T08:45:00Z,29.6671,-81.2574,1.67,11.1,1111122 
NERRS,ioos:station:NOAA.NERRS:gtmpcwq:1,2014-03-09T09:45:00Z,29.6671,-81.2574,1.75,18.1,1111122 
NERRS,ioos:station:NOAA.NERRS:gtmpcwq:1,2014-03-09T10:45:00Z,29.6671,-81.2574,1.77,20.4,1111122 
NERRS,ioos:station:NOAA.NERRS:gtmpcwq:1,2014-03-09T11:45:00Z,29.6671,-81.2574,1.72,22.8,1111122 
NERRS,ioos:station:NOAA.NERRS:gtmpcwq:1,2014-03-09T12:45:00Z,29.6671,-81.2574,1.65,19.8,1111122 
NERRS,ioos:station:NOAA.NERRS:gtmpcwq:1,2014-03-09T13:45:00Z,29.6671,-81.2574,1.56,18.5,1111122 
NERRS,ioos:station:NOAA.NERRS:gtmpcwq:1,2014-03-09T14:45:00Z,29.6671,-81.2574,1.49,14.1,1111122 
NERRS,ioos:station:NOAA.NERRS:gtmpcwq:1,2014-03-09T15:45:00Z,29.6671,-81.2574,1.42,11.7,1111122 
NERRS,ioos:station:NOAA.NERRS:gtmpcwq:1,2014-03-09T16:45:00Z,29.6671,-81.2574,1.35,8.4,1111122 
NERRS,ioos:station:NOAA.NERRS:gtmpcwq:1,2014-03-09T17:45:00Z,29.6671,-81.2574,1.31,5.3,1111122 
NERRS,ioos:station:NOAA.NERRS:gtmpcwq:1,2014-03-09T18:45:00Z,29.6671,-81.2574,1.3,3.6,1111122 
NERRS,ioos:station:NOAA.NERRS:gtmpcwq:1,2014-03-09T19:45:00Z,29.6671,-81.2574,1.37,1.2,1111122 
NERRS,ioos:station:NOAA.NERRS:gtmpcwq:1,2014-03-09T20:45:00Z,29.6671,-81.2574,1.46,5.4,1111122 
NERRS,ioos:station:NOAA.NERRS:gtmpcwq:1,2014-03-09T21:45:00Z,29.6671,-81.2574,1.55,7.0,1111122 
NERRS,ioos:station:NOAA.NERRS:gtmpcwq:1,2014-03-09T22:45:00Z,29.6671,-81.2574,1.58,11.7,1111122 
NERRS,ioos:station:NOAA.NERRS:gtmpcwq:1,2014-03-09T23:45:00Z,29.6671,-81.2574,1.53,14.5,1111122 
NERRS,ioos:station:NOAA.NERRS:gtmpcwq:1,2014-03-10T00:45:00Z,29.6671,-81.2574,1.46,12.1,1111122 
NERRS,ioos:station:NOAA.NERRS:gtmpcwq:1,2014-03-10T01:45:00Z,29.6671,-81.2574,1.4,10.9,1111122 
NERRS,ioos:station:NOAA.NERRS:gtmpcwq:1,2014-03-10T02:45:00Z,29.6671,-81.2574,1.34,11.0,1111122 
NERRS,ioos:station:NOAA.NERRS:gtmpcwq:1,2014-03-10T03:45:00Z,29.6671,-81.2574,1.29,11.1,1111122 
NERRS,ioos:station:NOAA.NERRS:gtmpcwq:1,2014-03-10T04:45:00Z,29.6671,-81.2574,1.23,9.7,1111122 
NERRS,ioos:station:NOAA.NERRS:gtmpcwq:1,2014-03-10T05:45:00Z,29.6671,-81.2574,1.2,7.9,1111122 
NERRS,ioos:station:NOAA.NERRS:gtmpcwq:1,2014-03-10T06:45:00Z,29.6671,-81.2574,1.19,6.6,1111122 
NERRS,ioos:station:NOAA.NERRS:gtmpcwq:1,2014-03-10T07:45:00Z,29.6671,-81.2574,1.25,2.0,1111122 
NERRS,ioos:station:NOAA.NERRS:gtmpcwq:1,2014-03-10T08:45:00Z,29.6671,-81.2574,1.35,8.6,1111122 
NERRS,ioos:station:NOAA.NERRS:gtmpcwq:1,2014-03-10T09:45:00Z,29.6671,-81.2574,1.45,11.5,1111122 
NERRS,ioos:station:NOAA.NERRS:gtmpcwq:1,2014-03-10T10:45:00Z,29.6671,-81.2574,1.56,15.0,1111122 
NERRS,ioos:station:NOAA.NERRS:gtmpcwq:1,2014-03-10T11:45:00Z,29.6671,-81.2574,1.61,18.5,1111122 
NERRS,ioos:station:NOAA.NERRS:gtmpcwq:1,2014-03-10T12:45:00Z,29.6671,-81.2574,1.56,20.3,1111122 
NERRS,ioos:station:NOAA.NERRS:gtmpcwq:1,2014-03-10T13:45:00Z,29.6671,-81.2574,1.49,19.6,1111122 
NERRS,ioos:station:NOAA.NERRS:gtmpcwq:1,2014-03-10T14:45:00Z,29.6671,-81.2574,1.41,19.1,1111122 
NERRS,ioos:station:NOAA.NERRS:gtmpcwq:1,2014-03-10T15:45:00Z,29.6671,-81.2574,1.36,17.9,1111122 
NERRS,ioos:station:NOAA.NERRS:gtmpcwq:1,2014-03-10T16:45:00Z,29.6671,-81.2574,1.29,17.1,1111122 
NERRS,ioos:station:NOAA.NERRS:gtmpcwq:1,2014-03-10T17:45:00Z,29.6671,-81.2574,1.23,16.5,1111122 
NERRS,ioos:station:NOAA.NERRS:gtmpcwq:1,2014-03-10T18:45:00Z,29.6671,-81.2574,1.19,16.4,1111122 
NERRS,ioos:station:NOAA.NERRS:gtmpcwq:1,2014-03-10T19:45:00Z,29.6671,-81.2574,1.19,10.9,1111122 
NERRS,ioos:station:NOAA.NERRS:gtmpcwq:1,2014-03-10T20:45:00Z,29.6671,-81.2574,1.25,12.3,1111122 
NERRS,ioos:station:NOAA.NERRS:gtmpcwq:1,2014-03-10T21:45:00Z,29.6671,-81.2574,1.33,18.2,1111122 
NERRS,ioos:station:NOAA.NERRS:gtmpcwq:1,2014-03-10T22:45:00Z,29.6671,-81.2574,1.43,15.1,1111122 
NERRS,ioos:station:NOAA.NERRS:gtmpcwq:1,2014-03-10T23:45:00Z,29.6671,-81.2574,1.48,17.3,1111122 
NERRS,ioos:station:NOAA.NERRS:gtmpcwq:1,2014-03-11T00:45:00Z,29.6671,-81.2574,1.46,18.3,1111122 
NERRS,ioos:station:NOAA.NERRS:gtmpcwq:1,2014-03-11T01:45:00Z,29.6671,-81.2574,1.4,17.8,1111122 
NERRS,ioos:station:NOAA.NERRS:gtmpcwq:1,2014-03-11T02:45:00Z,29.6671,-81.2574,1.34,17.8,1111122 
NERRS,ioos:station:NOAA.NERRS:gtmpcwq:1,2014-03-11T03:45:00Z,29.6671,-81.2574,1.28,17.7,1111122 
NERRS,ioos:station:NOAA.NERRS:gtmpcwq:1,2014-03-11T04:45:00Z,29.6671,-81.2574,1.22,17.2,1111122 
NERRS,ioos:station:NOAA.NERRS:gtmpcwq:1,2014-03-11T05:45:00Z,29.6671,-81.2574,1.17,16.5,1111122 
NERRS,ioos:station:NOAA.NERRS:gtmpcwq:1,2014-03-11T06:45:00Z,29.6671,-81.2574,1.13,15.8,1111122 
NERRS,ioos:station:NOAA.NERRS:gtmpcwq:1,2014-03-11T07:45:00Z,29.6671,-81.2574,1.12,13.6,1111122 
NERRS,ioos:station:NOAA.NERRS:gtmpcwq:1,2014-03-11T08:45:00Z,29.6671,-81.2574,1.18,6.5,1111122 
NERRS,ioos:station:NOAA.NERRS:gtmpcwq:1,2014-03-11T09:45:00Z,29.6671,-81.2574,1.27,12.2,1111122 
NERRS,ioos:station:NOAA.NERRS:gtmpcwq:1,2014-03-11T10:45:00Z,29.6671,-81.2574,1.39,11.6,1111122 
NERRS,ioos:station:NOAA.NERRS:gtmpcwq:1,2014-03-11T11:45:00Z,29.6671,-81.2574,1.49,16.0,1111122 
NERRS,ioos:station:NOAA.NERRS:gtmpcwq:1,2014-03-11T12:45:00Z,29.6671,-81.2574,1.54,16.8,1111122 
NERRS,ioos:station:NOAA.NERRS:gtmpcwq:1,2014-03-11T13:45:00Z,29.6671,-81.2574,1.49,17.6,1111122 
NERRS,ioos:station:NOAA.NERRS:gtmpcwq:1,2014-03-11T14:45:00Z,29.6671,-81.2574,1.42,17.4,1111122 
NERRS,ioos:station:NOAA.NERRS:gtmpcwq:1,2014-03-11T15:45:00Z,29.6671,-81.2574,1.34,17.0,1111122 
NERRS,ioos:station:NOAA.NERRS:gtmpcwq:1,2014-03-11T16:45:00Z,29.6671,-81.2574,1.28,16.6,1111122 
NERRS,ioos:station:NOAA.NERRS:gtmpcwq:1,2014-03-11T17:45:00Z,29.6671,-81.2574,1.22,15.9,1111122 
NERRS,ioos:station:NOAA.NERRS:gtmpcwq:1,2014-03-11T18:45:00Z,29.6671,-81.2574,1.17,16.0,1111122 
NERRS,ioos:station:NOAA.NERRS:gtmpcwq:1,2014-03-11T19:45:00Z,29.6671,-81.2574,1.13,15.4,1111122 
NERRS,ioos:station:NOAA.NERRS:gtmpcwq:1,2014-03-11T20:45:00Z,29.6671,-81.2574,1.15,12.5,1111122 
NERRS,ioos:station:NOAA.NERRS:gtmpcwq:1,2014-03-11T21:45:00Z,29.6671,-81.2574,1.2,15.9,1111122 
NERRS,ioos:station:NOAA.NERRS:gtmpcwq:1,2014-03-11T22:45:00Z,29.6671,-81.2574,1.3,13.0,1111122 
NERRS,ioos:station:NOAA.NERRS:gtmpcwq:1,2014-03-11T23:45:00Z,29.6671,-81.2574,1.4,10.2,1111122 
NERRS,ioos:station:NOAA.NERRS:gtmpcwq:1,2014-03-12T00:45:00Z,29.6671,-81.2574,1.47,14.6,1111122 
NERRS,ioos:station:NOAA.NERRS:gtmpcwq:1,2014-03-12T01:45:00Z,29.6671,-81.2574,1.45,16.4,1111122 
NERRS,ioos:station:NOAA.NERRS:gtmpcwq:1,2014-03-12T02:45:00Z,29.6671,-81.2574,1.38,16.4,1111122 
NERRS,ioos:station:NOAA.NERRS:gtmpcwq:1,2014-03-12T03:45:00Z,29.6671,-81.2574,1.31,16.2,1111122 
NERRS,ioos:station:NOAA.NERRS:gtmpcwq:1,2014-03-12T04:45:00Z,29.6671,-81.2574,1.23,15.7,1111122 
NERRS,ioos:station:NOAA.NERRS:gtmpcwq:1,2014-03-12T05:45:00Z,29.6671,-81.2574,1.18,15.5,1111122 
NERRS,ioos:station:NOAA.NERRS:gtmpcwq:1,2014-03-12T06:45:00Z,29.6671,-81.2574,1.12,15.1,1111122 
NERRS,ioos:station:NOAA.NERRS:gtmpcwq:1,2014-03-12T07:45:00Z,29.6671,-81.2574,1.07,14.5,1111122 
NERRS,ioos:station:NOAA.NERRS:gtmpcwq:1,2014-03-12T08:45:00Z,29.6671,-81.2574,1.07,12.7,1111122 
NERRS,ioos:station:NOAA.NERRS:gtmpcwq:1,2014-03-12T09:45:00Z,29.6671,-81.2574,1.14,6.2,1111122 
NERRS,ioos:station:NOAA.NERRS:gtmpcwq:1,2014-03-12T10:45:00Z,29.6671,-81.2574,1.24,9.6,1111122 
NERRS,ioos:station:NOAA.NERRS:gtmpcwq:1,2014-03-12T12:45:00Z,29.6671,-81.2574,1.49,12.3,1111122 
NERRS,ioos:station:NOAA.NERRS:gtmpcwq:1,2014-03-12T13:45:00Z,29.6671,-81.2574,1.53,16.5,1111122 
NERRS,ioos:station:NOAA.NERRS:gtmpcwq:1,2014-03-12T14:45:00Z,29.6671,-81.2574,1.47,18.1,1111122 
NERRS,ioos:station:NOAA.NERRS:gtmpcwq:1,2014-03-12T15:45:00Z,29.6671,-81.2574,1.38,16.9,1111122 
NERRS,ioos:station:NOAA.NERRS:gtmpcwq:1,2014-03-12T16:45:00Z,29.6671,-81.2574,1.29,16.8,1111122 
NERRS,ioos:station:NOAA.NERRS:gtmpcwq:1,2014-03-12T17:45:00Z,29.6671,-81.2574,1.2,15.3,1111122 
NERRS,ioos:station:NOAA.NERRS:gtmpcwq:1,2014-03-12T18:45:00Z,29.6671,-81.2574,1.11,15.4,1111122 
NERRS,ioos:station:NOAA.NERRS:gtmpcwq:1,2014-03-12T19:45:00Z,29.6671,-81.2574,1.05,7.3,1111122 
NERRS,ioos:station:NOAA.NERRS:gtmpcwq:1,2014-03-12T20:45:00Z,29.6671,-81.2574,1.01,5.9,1111122 
NERRS,ioos:station:NOAA.NERRS:gtmpcwq:1,2014-03-12T21:45:00Z,29.6671,-81.2574,1.01,2.7,1111122 